WMT3142 LIRF-LROP

Flight info

Callsign WMT3142
Flight time 1h 41m
Altitude 36000
Route OKUNO DCT ATRUP DCT MOKUN/N0448F370 DCT RAMAP DCT GINAM DCT AZBUX DCT NISVA DCT SOMOV DCT SORDU
Aircraft A321/M-SDE3FGHIRWY/LB1

Departure

Time 2026-05-05 17:25
Airport Rome–Fiumicino Leonardo da Vinci International Airport (LIRF)

Arrival

Time 2026-05-05 19:06
Airport Bucharest Henri Coandă International Airport (LROP)
Time Latitude Longitude Altitude Speed Heading
2026-05-05 16:58 41.79652 12.25600 14 ft 0 kts 295°
2026-05-05 17:09 41.79651 12.25602 14 ft 2 kts 295°
2026-05-05 17:09 41.79639 12.25631 17 ft 4 kts 316°
2026-05-05 17:09 41.79617 12.25647 18 ft 4 kts
2026-05-05 17:09 41.79604 12.25644 17 ft 0 kts 25°
2026-05-05 17:11 41.79606 12.25645 17 ft 1 kts 25°
2026-05-05 17:12 41.79628 12.25659 16 ft 7 kts 25°
2026-05-05 17:12 41.79688 12.25697 14 ft 11 kts 25°
2026-05-05 17:12 41.79760 12.25742 14 ft 12 kts 25°
2026-05-05 17:12 41.79780 12.25755 14 ft 0 kts 25°
2026-05-05 17:13 41.79781 12.25756 15 ft 1 kts 25°
2026-05-05 17:13 41.79783 12.25757 17 ft 0 kts 25°
2026-05-05 17:14 41.79785 12.25758 16 ft 1 kts 25°
2026-05-05 17:14 41.79808 12.25773 14 ft 6 kts 25°
2026-05-05 17:14 41.79858 12.25808 14 ft 10 kts 32°
2026-05-05 17:14 41.79932 12.25861 14 ft 14 kts 24°
2026-05-05 17:15 41.80028 12.25919 14 ft 16 kts 25°
2026-05-05 17:15 41.80131 12.25983 16 ft 15 kts 25°
2026-05-05 17:15 41.80213 12.26033 15 ft 13 kts 24°
2026-05-05 17:15 41.80301 12.26087 17 ft 14 kts 25°
2026-05-05 17:16 41.80395 12.26145 15 ft 15 kts 25°
2026-05-05 17:16 41.80490 12.26178 16 ft 14 kts 12°
2026-05-05 17:16 41.80540 12.26279 16 ft 14 kts 71°
2026-05-05 17:16 41.80575 12.26407 16 ft 15 kts 70°
2026-05-05 17:17 41.80613 12.26547 16 ft 17 kts 70°
2026-05-05 17:17 41.80654 12.26696 15 ft 18 kts 70°
2026-05-05 17:17 41.80699 12.26856 14 ft 18 kts 69°
2026-05-05 17:17 41.80732 12.26978 13 ft 9 kts 70°
2026-05-05 17:18 41.80778 12.27039 13 ft 10 kts 16°
2026-05-05 17:18 41.80819 12.27034 14 ft 0 kts 343°
2026-05-05 17:18 41.80820 12.27034 16 ft 0 kts 343°
2026-05-05 17:20 41.80824 12.27032 15 ft 3 kts 343°
2026-05-05 17:21 41.80861 12.27015 14 ft 7 kts 340°
2026-05-05 17:21 41.80877 12.27008 13 ft 0 kts 340°
2026-05-05 17:22 41.80880 12.27006 13 ft 2 kts 340°
2026-05-05 17:22 41.80927 12.26983 13 ft 13 kts 340°
2026-05-05 17:22 41.80944 12.26877 14 ft 12 kts 252°
2026-05-05 17:23 41.80938 12.26856 13 ft 0 kts 249°
2026-05-05 17:24 41.80935 12.26843 16 ft 9 kts 249°
2026-05-05 17:24 41.80821 12.26437 18 ft 85 kts 250°
2026-05-05 17:24 41.80538 12.25406 17 ft 148 kts 249°
2026-05-05 17:25 41.80113 12.23972 365 ft 165 kts 247°
2026-05-05 17:25 41.79869 12.23022 940 ft 157 kts 244°
2026-05-05 17:25 41.79391 12.21211 1916 ft 153 kts 243°
2026-05-05 17:25 41.78879 12.20061 2613 ft 139 kts 221°
2026-05-05 17:26 41.78113 12.19273 3063 ft 145 kts 213°
2026-05-05 17:26 41.77243 12.18412 3324 ft 166 kts 215°
2026-05-05 17:26 41.76259 12.17430 3535 ft 186 kts 210°
2026-05-05 17:26 41.75031 12.16829 3907 ft 192 kts 191°
2026-05-05 17:27 41.73674 12.16824 4313 ft 198 kts 178°
2026-05-05 17:27 41.72273 12.16921 4604 ft 209 kts 179°
2026-05-05 17:27 41.70733 12.16996 4735 ft 233 kts 179°
2026-05-05 17:27 41.69048 12.17073 5067 ft 252 kts 179°
2026-05-05 17:28 41.67279 12.17155 5782 ft 257 kts 179°
2026-05-05 17:28 41.65467 12.17240 6458 ft 265 kts 179°
2026-05-05 17:28 41.63597 12.17322 7084 ft 272 kts 180°
2026-05-05 17:28 41.61699 12.17407 7854 ft 273 kts 181°
2026-05-05 17:29 41.59789 12.17495 8591 ft 277 kts 180°
2026-05-05 17:29 41.57853 12.17594 9356 ft 280 kts 180°
2026-05-05 17:29 41.55918 12.18088 10125 ft 288 kts 165°
2026-05-05 17:29 41.54105 12.19296 10810 ft 298 kts 149°
2026-05-05 17:30 41.52364 12.20967 11101 ft 320 kts 147°
2026-05-05 17:30 41.50505 12.22779 11234 ft 343 kts 143°
2026-05-05 17:30 41.48850 12.25222 11361 ft 369 kts 123°
2026-05-05 17:30 41.47897 12.28456 11759 ft 383 kts 102°
2026-05-05 17:31 41.47830 12.31983 12303 ft 391 kts 81°
2026-05-05 17:31 41.48722 12.35403 12945 ft 395 kts 59°
2026-05-05 17:31 41.50353 12.38355 13583 ft 397 kts 46°
2026-05-05 17:31 41.52387 12.40859 14171 ft 399 kts 35°
2026-05-05 17:32 41.54737 12.42842 14743 ft 401 kts 25°
2026-05-05 17:32 41.57270 12.44405 15319 ft 403 kts 22°
2026-05-05 17:32 41.59834 12.45972 15905 ft 407 kts 22°
2026-05-05 17:32 41.62416 12.47566 16479 ft 411 kts 22°
2026-05-05 17:33 41.65021 12.49179 17049 ft 414 kts 22°
2026-05-05 17:33 41.67649 12.50811 17615 ft 418 kts 22°
2026-05-05 17:33 41.70297 12.52459 18175 ft 422 kts 22°
2026-05-05 17:33 41.72971 12.54125 18693 ft 425 kts 22°
2026-05-05 17:34 41.75661 12.55799 19203 ft 428 kts 22°
2026-05-05 17:34 41.78374 12.57485 19692 ft 431 kts 22°
2026-05-05 17:34 41.81043 12.59355 20167 ft 436 kts 30°
2026-05-05 17:34 41.83549 12.61670 20620 ft 439 kts 33°
2026-05-05 17:35 41.86057 12.64042 21070 ft 442 kts 33°
2026-05-05 17:35 41.88578 12.66420 21524 ft 445 kts 33°
2026-05-05 17:35 41.91122 12.68809 21971 ft 447 kts 33°
2026-05-05 17:35 41.93683 12.71211 22396 ft 450 kts 33°
2026-05-05 17:36 41.96256 12.73633 22818 ft 453 kts 33°
2026-05-05 17:36 41.98844 12.76077 23233 ft 456 kts 33°
2026-05-05 17:36 42.01402 12.78620 23654 ft 459 kts 39°
2026-05-05 17:36 42.03689 12.81639 24020 ft 463 kts 48°
2026-05-05 17:37 42.05614 12.85135 24354 ft 468 kts 57°
2026-05-05 17:37 42.06694 12.87650 24564 ft 470 kts 59°
2026-05-05 17:37 42.08847 12.92802 24990 ft 474 kts 59°
2026-05-05 17:37 42.10473 12.96675 25303 ft 477 kts 59°
2026-05-05 17:38 42.12074 13.00539 25607 ft 480 kts 60°
2026-05-05 17:38 42.13661 13.04512 25902 ft 483 kts 60°
2026-05-05 17:38 42.15226 13.08541 26200 ft 486 kts 61°
2026-05-05 17:38 42.16780 13.12600 26497 ft 489 kts 61°
2026-05-05 17:39 42.18343 13.16690 26805 ft 492 kts 61°
2026-05-05 17:39 42.19918 13.20794 27084 ft 494 kts 60°
2026-05-05 17:39 42.21511 13.24922 27391 ft 497 kts 60°
2026-05-05 17:39 42.23117 13.29068 27698 ft 500 kts 60°
2026-05-05 17:40 42.24734 13.33234 27990 ft 503 kts 60°
2026-05-05 17:40 42.26360 13.37421 28293 ft 505 kts 60°
2026-05-05 17:40 42.27989 13.41623 28684 ft 505 kts 60°
2026-05-05 17:40 42.29619 13.45833 29044 ft 506 kts 60°
2026-05-05 17:41 42.31244 13.50042 29450 ft 506 kts 60°
2026-05-05 17:41 42.32848 13.54266 29902 ft 505 kts 62°
2026-05-05 17:41 42.34122 13.58700 30279 ft 508 kts 71°
2026-05-05 17:41 42.34919 13.63353 30608 ft 510 kts 81°
2026-05-05 17:42 42.35250 13.68130 30926 ft 511 kts 86°
2026-05-05 17:42 42.35438 13.72924 31255 ft 511 kts 86°
2026-05-05 17:42 42.35629 13.77714 31584 ft 511 kts 86°
2026-05-05 17:42 42.35822 13.82505 31919 ft 511 kts 86°
2026-05-05 17:43 42.36017 13.87303 32246 ft 511 kts 86°
2026-05-05 17:43 42.36211 13.92098 32506 ft 511 kts 86°
2026-05-05 17:43 42.36405 13.96906 32805 ft 512 kts 86°
2026-05-05 17:43 42.36595 14.01710 33144 ft 512 kts 86°
2026-05-05 17:44 42.36782 14.06518 33469 ft 512 kts 86°
2026-05-05 17:44 42.36963 14.11321 33782 ft 512 kts 86°
2026-05-05 17:44 42.37141 14.16130 34085 ft 512 kts 86°
2026-05-05 17:44 42.37316 14.20939 34382 ft 512 kts 86°
2026-05-05 17:45 42.37486 14.25740 34686 ft 510 kts 86°
2026-05-05 17:45 42.37598 14.28910 34902 ft 509 kts 86°
2026-05-05 17:45 42.37766 14.33681 35225 ft 508 kts 86°
2026-05-05 17:45 42.37987 14.39990 35654 ft 505 kts 86°
2026-05-05 17:46 42.38099 14.43194 35865 ft 505 kts 86°
2026-05-05 17:46 42.38318 14.49471 36014 ft 505 kts 86°
2026-05-05 17:46 42.38430 14.52679 36019 ft 505 kts 86°
2026-05-05 17:47 42.38751 14.62164 36012 ft 505 kts 86°
2026-05-05 17:47 42.39061 14.71653 36005 ft 505 kts 86°
2026-05-05 17:48 42.39363 14.81153 36009 ft 514 kts 86°
2026-05-05 17:48 42.39660 14.90862 36011 ft 520 kts 86°
2026-05-05 17:49 42.39952 15.00649 36007 ft 521 kts 86°
2026-05-05 17:49 42.40241 15.10438 36007 ft 521 kts 86°
2026-05-05 17:50 42.40523 15.20230 36015 ft 521 kts 86°
2026-05-05 17:50 42.40794 15.30042 36034 ft 522 kts 86°
2026-05-05 17:51 42.41056 15.39857 36044 ft 522 kts 86°
2026-05-05 17:51 42.41311 15.49670 36045 ft 521 kts 86°
2026-05-05 17:52 42.41560 15.59470 36042 ft 521 kts 86°
2026-05-05 17:52 42.41797 15.69270 36043 ft 521 kts 86°
2026-05-05 17:53 42.42027 15.79070 36047 ft 521 kts 86°
2026-05-05 17:53 42.42242 15.88866 36047 ft 521 kts 86°
2026-05-05 17:54 42.42453 15.98660 36030 ft 520 kts 86°
2026-05-05 17:54 42.42659 16.08351 36023 ft 518 kts 86°
2026-05-05 17:55 42.42859 16.18090 36024 ft 518 kts 86°
2026-05-05 17:55 42.43035 16.27826 36027 ft 518 kts 87°
2026-05-05 17:56 42.43202 16.37576 36035 ft 517 kts 86°
2026-05-05 17:56 42.43374 16.47311 36053 ft 518 kts 86°
2026-05-05 17:57 42.43542 16.57058 36062 ft 518 kts 86°
2026-05-05 17:57 42.43695 16.66803 36066 ft 518 kts 87°
2026-05-05 17:58 42.43841 16.76549 36071 ft 518 kts 87°
2026-05-05 17:58 42.43980 16.86288 36071 ft 517 kts 87°
2026-05-05 17:59 42.44108 16.96019 36078 ft 517 kts 87°
2026-05-05 17:59 42.44228 17.05693 36083 ft 517 kts 88°
2026-05-05 18:00 42.44337 17.15488 36083 ft 517 kts 88°
2026-05-05 18:00 42.44437 17.25140 36087 ft 516 kts 88°
2026-05-05 18:01 42.44532 17.34852 36088 ft 516 kts 88°
2026-05-05 18:01 42.44619 17.44563 36092 ft 516 kts 88°
2026-05-05 18:02 42.44701 17.54265 36091 ft 515 kts 88°
2026-05-05 18:02 42.44767 17.63953 36095 ft 514 kts 88°
2026-05-05 18:03 42.44826 17.73637 36102 ft 514 kts 88°
2026-05-05 18:03 42.44881 17.83303 36103 ft 513 kts 88°
2026-05-05 18:04 42.44928 17.92952 36106 ft 512 kts 88°
2026-05-05 18:04 42.44966 18.02598 36110 ft 512 kts 88°
2026-05-05 18:05 42.44992 18.12236 36111 ft 512 kts 88°
2026-05-05 18:05 42.45016 18.21874 36112 ft 512 kts 88°
2026-05-05 18:06 42.45029 18.31509 36112 ft 512 kts 89°
2026-05-05 18:06 42.45054 18.41149 36109 ft 511 kts 85°
2026-05-05 18:07 42.46435 18.50482 36112 ft 503 kts 66°
2026-05-05 18:07 42.49556 18.58794 36092 ft 494 kts 56°
2026-05-05 18:07 42.51232 18.62787 36087 ft 482 kts 56°
2026-05-05 18:08 42.52869 18.66734 36090 ft 479 kts 57°
2026-05-05 18:08 42.56122 18.74615 36094 ft 478 kts 57°
2026-05-05 18:09 42.59368 18.82478 36095 ft 477 kts 56°
2026-05-05 18:09 42.62574 18.90242 36095 ft 468 kts 56°
2026-05-05 18:10 42.65744 18.97931 36107 ft 462 kts 56°
2026-05-05 18:10 42.68820 19.05428 36087 ft 450 kts 56°
2026-05-05 18:11 42.71870 19.12849 36092 ft 449 kts 56°
2026-05-05 18:11 42.74907 19.20267 36090 ft 449 kts 56°
2026-05-05 18:12 42.77935 19.27695 36097 ft 449 kts 56°
2026-05-05 18:12 42.80962 19.35142 36081 ft 449 kts 56°
2026-05-05 18:13 42.83986 19.42605 36089 ft 450 kts 56°
2026-05-05 18:13 42.87007 19.50071 36090 ft 450 kts 56°
2026-05-05 18:14 42.90003 19.57502 36084 ft 453 kts 56°
2026-05-05 18:14 42.93088 19.65151 36069 ft 468 kts 57°
2026-05-05 18:15 42.96253 19.73012 36058 ft 478 kts 57°
2026-05-05 18:15 42.99487 19.81082 36057 ft 490 kts 57°
2026-05-05 18:16 43.02748 19.89276 36052 ft 491 kts 57°
2026-05-05 18:16 43.06007 19.97494 36043 ft 492 kts 57°
2026-05-05 18:17 43.09267 20.05711 36040 ft 491 kts 57°
2026-05-05 18:17 43.12529 20.13935 36050 ft 492 kts 57°
2026-05-05 18:18 43.15781 20.22165 36063 ft 491 kts 57°
2026-05-05 18:18 43.19014 20.30393 36064 ft 490 kts 58°
2026-05-05 18:19 43.22212 20.38562 36061 ft 489 kts 58°
2026-05-05 18:19 43.25402 20.46714 36011 ft 474 kts 58°
2026-05-05 18:20 43.28490 20.54622 36012 ft 468 kts 58°
2026-05-05 18:20 43.31552 20.62491 36021 ft 466 kts 58°
2026-05-05 18:21 43.34593 20.70338 36004 ft 465 kts 58°
2026-05-05 18:21 43.37623 20.78179 36005 ft 464 kts 58°
2026-05-05 18:22 43.39934 20.86497 35994 ft 472 kts 76°
2026-05-05 18:22 43.40131 20.95528 35995 ft 478 kts 97°
2026-05-05 18:23 43.38419 21.04310 35994 ft 480 kts 106°
2026-05-05 18:23 43.36435 21.13084 36003 ft 481 kts 106°
2026-05-05 18:24 43.34455 21.21881 36008 ft 482 kts 106°
2026-05-05 18:24 43.32457 21.30676 36007 ft 482 kts 106°
2026-05-05 18:25 43.30448 21.39461 36018 ft 482 kts 105°
2026-05-05 18:25 43.28435 21.48249 36015 ft 482 kts 106°
2026-05-05 18:26 43.26412 21.57025 36003 ft 482 kts 106°
2026-05-05 18:26 43.24380 21.65795 35998 ft 482 kts 106°
2026-05-05 18:27 43.22347 21.74567 35998 ft 483 kts 106°
2026-05-05 18:27 43.20302 21.83332 35998 ft 483 kts 106°
2026-05-05 18:28 43.17216 21.96459 35998 ft 482 kts 106°
2026-05-05 18:28 43.15158 22.05200 36008 ft 482 kts 106°
2026-05-05 18:29 43.13096 22.13921 36009 ft 481 kts 106°
2026-05-05 18:29 43.11026 22.22637 36020 ft 481 kts 106°
2026-05-05 18:30 43.08972 22.31289 36032 ft 481 kts 106°
2026-05-05 18:30 43.06895 22.39997 36042 ft 481 kts 106°
2026-05-05 18:31 43.04803 22.48684 36050 ft 481 kts 106°
2026-05-05 18:31 43.02706 22.57364 36059 ft 481 kts 106°
2026-05-05 18:32 43.00612 22.66034 36048 ft 481 kts 106°
2026-05-05 18:32 42.99009 22.74835 36062 ft 475 kts 92°
2026-05-05 18:33 42.99418 22.83696 36058 ft 464 kts 72°
2026-05-05 18:33 43.01716 22.91806 36054 ft 456 kts 59°
2026-05-05 18:34 43.04555 22.99555 36061 ft 456 kts 59°
2026-05-05 18:34 43.07377 23.07318 36059 ft 456 kts 59°
2026-05-05 18:35 43.10200 23.15099 36072 ft 457 kts 59°
2026-05-05 18:35 43.13002 23.22831 36065 ft 456 kts 60°
2026-05-05 18:36 43.15813 23.30618 36073 ft 456 kts 60°
2026-05-05 18:36 43.18617 23.38408 36059 ft 455 kts 60°
2026-05-05 18:37 43.21419 23.46191 36053 ft 455 kts 60°
2026-05-05 18:37 43.23760 23.52714 36048 ft 455 kts 60°
2026-05-05 18:38 43.26547 23.60506 36046 ft 455 kts 60°
2026-05-05 18:38 43.29321 23.68300 36045 ft 454 kts 60°
2026-05-05 18:39 43.32069 23.76043 36047 ft 454 kts 60°
2026-05-05 18:39 43.34831 23.83825 36039 ft 453 kts 60°
2026-05-05 18:40 43.37583 23.91596 36033 ft 452 kts 60°
2026-05-05 18:40 43.40320 23.99379 36038 ft 452 kts 60°
2026-05-05 18:41 43.43057 24.07155 36030 ft 451 kts 60°
2026-05-05 18:41 43.45791 24.14932 36025 ft 451 kts 60°
2026-05-05 18:42 43.48518 24.22713 36028 ft 451 kts 60°
2026-05-05 18:42 43.51233 24.30507 36047 ft 451 kts 60°
2026-05-05 18:43 43.53939 24.38297 36037 ft 451 kts 61°
2026-05-05 18:43 43.56637 24.46094 36031 ft 450 kts 61°
2026-05-05 18:44 43.59326 24.53887 36027 ft 450 kts 61°
2026-05-05 18:44 43.62012 24.61675 36024 ft 449 kts 61°
2026-05-05 18:45 43.64678 24.69419 36030 ft 449 kts 61°
2026-05-05 18:45 43.67350 24.77211 36027 ft 449 kts 61°
2026-05-05 18:46 43.70131 24.84909 36021 ft 445 kts 54°
2026-05-05 18:46 43.73875 24.91653 36006 ft 442 kts 48°
2026-05-05 18:47 43.75801 24.94965 35740 ft 441 kts 48°
2026-05-05 18:47 43.77718 24.98279 35496 ft 440 kts 48°
2026-05-05 18:47 43.79623 25.01592 35257 ft 440 kts 48°
2026-05-05 18:47 43.81529 25.04909 35008 ft 440 kts 48°
2026-05-05 18:48 43.83432 25.08227 34766 ft 440 kts 48°
2026-05-05 18:48 43.85334 25.11549 34524 ft 440 kts 48°
2026-05-05 18:48 43.87243 25.14871 34289 ft 440 kts 48°
2026-05-05 18:48 43.89148 25.18193 34034 ft 440 kts 48°
2026-05-05 18:49 43.91035 25.21487 33179 ft 433 kts 48°
2026-05-05 18:49 43.92921 25.24780 31256 ft 441 kts 48°
2026-05-05 18:49 43.94843 25.28137 29424 ft 446 kts 48°
2026-05-05 18:49 43.96756 25.31490 28070 ft 443 kts 48°
2026-05-05 18:50 43.98677 25.34854 26693 ft 446 kts 49°
2026-05-05 18:50 44.00599 25.38229 25377 ft 442 kts 49°
2026-05-05 18:50 44.02565 25.41454 24133 ft 433 kts 42°
2026-05-05 18:50 44.04877 25.44009 22805 ft 417 kts 30°
2026-05-05 18:51 44.07432 25.45740 21640 ft 401 kts 18°
2026-05-05 18:51 44.10046 25.46768 20769 ft 382 kts 14°
2026-05-05 18:51 44.12571 25.47677 19921 ft 368 kts 14°
2026-05-05 18:51 44.14998 25.48565 19243 ft 352 kts 14°
2026-05-05 18:52 44.17299 25.49413 18719 ft 333 kts 14°
2026-05-05 18:52 44.19486 25.50219 18194 ft 317 kts 14°
2026-05-05 18:52 44.21576 25.50990 17599 ft 304 kts 15°
2026-05-05 18:52 44.23599 25.51597 17020 ft 292 kts
2026-05-05 18:53 44.25599 25.51637 16468 ft 281 kts 356°
2026-05-05 18:53 44.27491 25.51318 15929 ft 269 kts 355°
2026-05-05 18:53 44.29315 25.51021 15374 ft 259 kts 355°
2026-05-05 18:53 44.31055 25.50747 14865 ft 251 kts 356°
2026-05-05 18:54 44.32780 25.50481 14428 ft 248 kts 356°
2026-05-05 18:54 44.34513 25.50213 13972 ft 246 kts 356°
2026-05-05 18:54 44.36170 25.49952 13462 ft 236 kts 356°
2026-05-05 18:54 44.37777 25.49696 12945 ft 226 kts 356°
2026-05-05 18:55 44.39337 25.49452 12422 ft 225 kts 356°
2026-05-05 18:55 44.40865 25.49212 12035 ft 223 kts 356°
2026-05-05 18:55 44.42409 25.48970 11951 ft 224 kts 356°
2026-05-05 18:55 44.43948 25.48727 11450 ft 221 kts 355°
2026-05-05 18:56 44.45469 25.48484 10867 ft 219 kts 355°
2026-05-05 18:56 44.46974 25.48249 10314 ft 217 kts 355°
2026-05-05 18:56 44.48465 25.48016 9747 ft 215 kts 354°
2026-05-05 18:56 44.49937 25.48086 9149 ft 212 kts 15°
2026-05-05 18:57 44.51202 25.49113 8599 ft 213 kts 43°
2026-05-05 18:57 44.51943 25.50815 8239 ft 202 kts 69°
2026-05-05 18:57 44.52157 25.52748 7781 ft 200 kts 80°
2026-05-05 18:57 44.52310 25.54697 7447 ft 202 kts 80°
2026-05-05 18:58 44.52469 25.56658 7161 ft 203 kts 80°
2026-05-05 18:58 44.52629 25.58625 6868 ft 203 kts 80°
2026-05-05 18:58 44.52787 25.60587 6592 ft 202 kts 80°
2026-05-05 18:58 44.52944 25.62544 6322 ft 202 kts 80°
2026-05-05 18:59 44.53101 25.64501 6049 ft 202 kts 81°
2026-05-05 18:59 44.53256 25.66444 5790 ft 200 kts 81°
2026-05-05 18:59 44.53409 25.68374 5523 ft 198 kts 81°
2026-05-05 18:59 44.53562 25.70290 5263 ft 198 kts 82°
2026-05-05 19:00 44.53713 25.72204 5003 ft 197 kts 82°
2026-05-05 19:00 44.53856 25.74106 4747 ft 193 kts 82°
2026-05-05 19:00 44.54000 25.75951 4489 ft 188 kts 82°
2026-05-05 19:00 44.54140 25.77741 4233 ft 182 kts 83°
2026-05-05 19:01 44.54280 25.79503 3887 ft 182 kts 83°
2026-05-05 19:01 44.54417 25.81249 3631 ft 178 kts 83°
2026-05-05 19:01 44.54549 25.82928 3416 ft 175 kts 83°
2026-05-05 19:01 44.54681 25.84614 3211 ft 173 kts 84°
2026-05-05 19:02 44.54812 25.86286 3017 ft 172 kts 84°
2026-05-05 19:02 44.54939 25.87909 2820 ft 162 kts 85°
2026-05-05 19:02 44.55062 25.89478 2623 ft 165 kts 85°
2026-05-05 19:02 44.55189 25.91121 2418 ft 171 kts 85°
2026-05-05 19:03 44.55315 25.92729 2211 ft 161 kts 86°
2026-05-05 19:03 44.55435 25.94269 2018 ft 157 kts 86°
2026-05-05 19:03 44.55551 25.95778 1844 ft 154 kts 87°
2026-05-05 19:03 44.55667 25.97271 1661 ft 154 kts 86°
2026-05-05 19:04 44.55781 25.98754 1476 ft 152 kts 87°
2026-05-05 19:04 44.55894 26.00224 1299 ft 151 kts 86°
2026-05-05 19:04 44.56004 26.01680 1120 ft 150 kts 86°
2026-05-05 19:04 44.56119 26.03125 940 ft 148 kts 86°
2026-05-05 19:05 44.56233 26.04560 785 ft 147 kts 86°
2026-05-05 19:05 44.56334 26.05986 590 ft 146 kts 86°
2026-05-05 19:05 44.56436 26.07398 394 ft 145 kts 84°
2026-05-05 19:05 44.56539 26.08717 322 ft 120 kts 88°
2026-05-05 19:06 44.56614 26.09659 322 ft 73 kts 83°
2026-05-05 19:06 44.56656 26.10249 323 ft 56 kts 85°
2026-05-05 19:06 44.56688 26.10667 323 ft 23 kts 82°
2026-05-05 19:06 44.56788 26.10761 322 ft 18 kts 351°
2026-05-05 19:07 44.56885 26.10747 321 ft 14 kts 356°
2026-05-05 19:07 44.56986 26.10719 323 ft 16 kts 330°
2026-05-05 19:07 44.57050 26.10594 323 ft 16 kts 295°
2026-05-05 19:07 44.57063 26.10455 322 ft 9 kts 263°
2026-05-05 19:08 44.57055 26.10359 323 ft 11 kts 265°
2026-05-05 19:08 44.57049 26.10245 323 ft 13 kts 265°
2026-05-05 19:08 44.57038 26.10111 323 ft 15 kts 263°
2026-05-05 19:08 44.57026 26.09974 323 ft 13 kts 263°
2026-05-05 19:09 44.57015 26.09837 323 ft 15 kts 263°
2026-05-05 19:09 44.57005 26.09691 323 ft 14 kts 264°
2026-05-05 19:09 44.56995 26.09583 323 ft 12 kts 263°
2026-05-05 19:09 44.56985 26.09461 323 ft 14 kts 263°
2026-05-05 19:10 44.56976 26.09319 323 ft 16 kts 265°
2026-05-05 19:10 44.56966 26.09188 323 ft 13 kts 263°
2026-05-05 19:10 44.56955 26.09062 323 ft 10 kts 263°
2026-05-05 19:10 44.56952 26.09026 323 ft 0 kts 263°
2026-05-05 19:11 44.56951 26.09014 323 ft 0 kts 264°
2026-05-05 19:11 44.56951 26.09011 323 ft 1 kts 265°
2026-05-05 19:11 44.56950 26.08988 323 ft 3 kts 266°
2026-05-05 19:12 44.56947 26.08945 323 ft 5 kts 264°
2026-05-05 19:12 44.56943 26.08883 323 ft 5 kts 264°
2026-05-05 19:12 44.56934 26.08855 321 ft 1 kts 221°
2026-05-05 19:12 44.56926 26.08857 321 ft 0 kts 169°
2026-05-05 19:13 44.56910 26.08862 323 ft 4 kts 171°
2026-05-05 19:13 44.56900 26.08863 323 ft 2 kts 174°
2026-05-05 19:13 44.56890 26.08865 321 ft 0 kts 173°